{"data":{"norad_id":67251,"epoch":"2026-09-20T22:05:40.230528Z","epoch_age_seconds":66726,"freshness":"FRESH","line1":"1 67251U 25313D   26263.92060452  .00001173  00000+0  10437-3 0  9991","line2":"2 67251  97.5596 330.1594 0147861   9.4948 350.9010 14.90005835 39656","mean_motion":14.90005835,"eccentricity":0.0147861,"inclination_deg":97.5596,"raan_deg":330.1594,"arg_perigee_deg":9.4948,"mean_anomaly_deg":350.901,"bstar":0.00010437,"rev_number":3965,"period_min":96.643916834057,"perigee_km":494.76881388593,"apogee_km":701.06609136993,"semimajor_km":6976.0544526279,"source":"CELESTRAK","updated_at":"2026-09-21T09:00:16.511582Z"}}